TimeEEST,TemperatureF,Dew PointF,Humidity,Sea Level PressureIn,VisibilityMPH,Wind Direction,Wind SpeedMPH,Gust SpeedMPH,PrecipitationIn,Events,Conditions,WindDirDegrees,DateUTC
12:20 AM,68.0,57.2,68,29.89,6.2,North,4.6,-,N/A,,Partly Cloudy,10,2013-06-30 21:20:00
12:50 AM,68.0,59.0,73,29.89,6.2,North,5.8,-,N/A,,Partly Cloudy,10,2013-06-30 21:50:00
1:20 AM,68.0,59.0,73,29.89,6.2,North,4.6,-,N/A,,Partly Cloudy,360,2013-06-30 22:20:00
1:50 AM,68.0,60.8,78,29.89,6.2,North,4.6,-,N/A,,Partly Cloudy,360,2013-06-30 22:50:00
2:20 AM,66.2,57.2,73,29.89,6.2,Variable,2.3,-,N/A,,Partly Cloudy,0,2013-06-30 23:20:00
2:50 AM,66.2,59.0,78,29.89,6.2,Variable,3.5,-,N/A,,Partly Cloudy,0,2013-06-30 23:50:00
3:20 AM,64.4,57.2,77,29.89,6.2,Variable,2.3,-,N/A,,Partly Cloudy,0,2013-07-01 00:20:00
3:50 AM,64.4,57.2,77,29.89,6.2,Variable,2.3,-,N/A,,Partly Cloudy,0,2013-07-01 00:50:00
4:20 AM,64.4,55.4,73,29.89,6.2,SSW,3.5,-,N/A,,Partly Cloudy,210,2013-07-01 01:20:00
4:50 AM,64.4,53.6,68,29.89,6.2,WSW,3.5,-,N/A,,Partly Cloudy,250,2013-07-01 01:50:00
5:20 AM,66.2,53.6,64,29.89,6.2,Variable,1.2,-,N/A,,Partly Cloudy,0,2013-07-01 02:20:00
5:50 AM,66.2,53.6,64,29.92,6.2,Variable,2.3,-,N/A,,Partly Cloudy,0,2013-07-01 02:50:00
6:20 AM,66.2,53.6,64,29.92,6.2,NNW,3.5,-,N/A,,Partly Cloudy,330,2013-07-01 03:20:00
6:50 AM,69.8,55.4,60,29.92,6.2,Variable,1.2,-,N/A,,Partly Cloudy,0,2013-07-01 03:50:00
7:20 AM,71.6,53.6,53,29.92,-9999.0,Calm,Calm,-,N/A,,Clear,0,2013-07-01 04:20:00
7:50 AM,73.4,51.8,47,29.92,-9999.0,Variable,2.3,-,N/A,,Clear,0,2013-07-01 04:50:00
8:20 AM,75.2,48.2,38,29.95,-9999.0,Variable,2.3,-,N/A,,Clear,0,2013-07-01 05:20:00
8:50 AM,77.0,46.4,34,29.95,-9999.0,NNW,5.8,-,N/A,,Clear,330,2013-07-01 05:50:00
9:20 AM,78.8,46.4,32,29.95,-9999.0,NNW,8.1,-,N/A,,Clear,330,2013-07-01 06:20:00
9:50 AM,78.8,46.4,32,29.95,-9999.0,NNW,8.1,-,N/A,,Clear,330,2013-07-01 06:50:00
10:20 AM,80.6,44.6,28,29.95,-9999.0,NNW,9.2,-,N/A,,Clear,340,2013-07-01 07:20:00
10:50 AM,80.6,44.6,28,29.95,-9999.0,NNW,10.4,-,N/A,,Clear,340,2013-07-01 07:50:00
11:20 AM,82.4,44.6,26,29.95,6.2,NW,9.2,-,N/A,,Partly Cloudy,310,2013-07-01 08:20:00
11:50 AM,84.2,42.8,23,29.95,6.2,NNW,13.8,-,N/A,,Partly Cloudy,340,2013-07-01 08:50:00
12:20 PM,84.2,42.8,23,29.95,6.2,NNW,11.5,-,N/A,,Partly Cloudy,330,2013-07-01 09:20:00
12:50 PM,84.2,44.6,25,29.95,6.2,NNW,8.1,-,N/A,,Partly Cloudy,330,2013-07-01 09:50:00
1:20 PM,84.2,44.6,25,29.95,6.2,NW,9.2,-,N/A,,Partly Cloudy,310,2013-07-01 10:20:00
1:50 PM,86.0,44.6,23,29.95,6.2,NW,4.6,-,N/A,,Partly Cloudy,310,2013-07-01 10:50:00
2:20 PM,84.2,46.4,27,29.95,6.2,NW,10.4,-,N/A,,Partly Cloudy,320,2013-07-01 11:20:00
2:50 PM,86.0,50.0,29,-9999,6.2,East,12.7,-,N/A,,Partly Cloudy,90,2013-07-01 11:50:00
3:20 PM,84.2,48.2,29,29.95,6.2,East,12.7,-,N/A,,Partly Cloudy,90,2013-07-01 12:20:00
3:50 PM,82.4,50.0,32,29.95,6.2,ESE,16.1,-,N/A,,Scattered Clouds,120,2013-07-01 12:50:00
4:20 PM,80.6,51.8,37,29.95,6.2,ESE,11.5,-,N/A,,Scattered Clouds,120,2013-07-01 13:20:00
4:50 PM,82.4,53.6,37,29.95,6.2,ESE,11.5,-,N/A,,Scattered Clouds,110,2013-07-01 13:50:00
5:20 PM,82.4,55.4,39,29.95,6.2,ESE,10.4,-,N/A,,Partly Cloudy,120,2013-07-01 14:20:00
5:50 PM,80.6,55.4,42,29.95,6.2,East,12.7,-,N/A,,Partly Cloudy,90,2013-07-01 14:50:00
6:20 PM,80.6,55.4,42,29.98,6.2,East,10.4,-,N/A,,Partly Cloudy,90,2013-07-01 15:20:00
6:50 PM,78.8,55.4,44,29.98,6.2,ENE,10.4,-,N/A,,Partly Cloudy,60,2013-07-01 15:50:00
7:20 PM,78.8,53.6,42,29.98,6.2,ENE,10.4,-,N/A,,Partly Cloudy,60,2013-07-01 16:20:00
7:50 PM,77.0,53.6,44,29.98,6.2,East,6.9,-,N/A,,Partly Cloudy,90,2013-07-01 16:50:00
8:20 PM,77.0,53.6,44,29.98,6.2,NE,5.8,-,N/A,,Partly Cloudy,50,2013-07-01 17:20:00
8:50 PM,75.2,55.4,50,30.01,6.2,NNE,6.9,-,N/A,,Partly Cloudy,30,2013-07-01 17:50:00
9:20 PM,73.4,55.4,53,30.01,-9999.0,Variable,2.3,-,N/A,,Clear,0,2013-07-01 18:20:00
9:50 PM,73.4,55.4,53,30.01,-9999.0,Calm,Calm,-,N/A,,Clear,0,2013-07-01 18:50:00
10:20 PM,73.4,55.4,53,30.01,-9999.0,NW,2.3,-,N/A,,Clear,310,2013-07-01 19:20:00
10:50 PM,73.4,53.6,50,30.01,-9999.0,Variable,3.5,-,N/A,,Clear,0,2013-07-01 19:50:00
11:20 PM,66.2,53.6,64,30.04,-9999.0,Calm,Calm,-,N/A,,Clear,0,2013-07-01 20:20:00
11:50 PM,66.2,53.6,64,30.04,-9999.0,West,3.5,-,N/A,,Clear,260,2013-07-01 20:50:00